Location: Kirkland Lake
(48.1510°N, 80.0330°W)
Time: 06:09:35
(UTC-05:00)

ISS - Visible Passes

Search period start: 23 November 2017 00:00
Search period end: 03 December 2017 00:00
Orbit: 402 x 407 km, 51.6° (Epoch: 23 November)

Date Brightness Start Highest point End Pass type
(mag) Time Alt. Az. Time Alt. Az. Time Alt. Az.
26 Nov -1.1 18:35:36 10° S 18:35:51 11° S 18:35:51 11° S visible
27 Nov -0.8 19:18:09 10° SW 19:18:37 13° SW 19:18:37 13° SW visible
28 Nov -2.4 18:26:11 10° SSW 18:28:36 28° SSE 18:28:36 28° SSE visible
29 Nov -1.9 17:34:37 10° S 17:36:55 18° SE 17:38:30 13° ESE visible
29 Nov -1.5 19:09:44 10° WSW 19:11:10 24° WSW 19:11:10 24° WSW visible
30 Nov -3.7 18:17:28 10° SW 18:20:41 56° SSE 18:21:00 52° ESE visible
01 Dec -2.8 17:25:23 10° SSW 17:28:23 34° SE 17:30:46 14° E visible
01 Dec -2.0 19:01:30 10° W 19:03:25 31° W 19:03:25 31° W visible
02 Dec -3.9 18:09:03 10° WSW 18:12:20 83° NNW 18:13:09 48° ENE visible
